Weather History for Tacoma, WA

Change the Weather History Date:

Sunday, October 28, 2012

  Actual Average Record
Temperature  
Mean Temperature 55 °F -  
Max Temperature 58 °F 53 °F 64 °F (2007)
Min Temperature 51 °F 35 °F 28 °F (1956)
Degree Days  
Heating Degree Days 10    
Growing Degree Days 5 (Base 50)    
Moisture  
Dew Point 54 °F    
Average Humidity 96    
Maximum Humidity 100    
Minimum Humidity 85    
Precipitation  
Precipitation 0.23 in - - ()
Sea Level Pressure  
Sea Level Pressure 29.89 in    
Wind  
Wind Speed 8 mph (SSW)    
Max Wind Speed 15 mph    
Max Gust Speed -    
Visibility 9 miles    
Events Rain    
Averages and records for this station are not official NWS values.
T = Trace of Precipitation, MM = Missing Value Source: NWS Daily Summary

Daily Weather History Graph

Daily Weather History Graph

Search for Another Location

Airport:

Trip Planner

Search our weather history database for the weather conditions in past years. The results will help you decide how hot, cold, wet, or windy it might be!

Date:

Astronomy

Oct. 28, 2012 Rise Set
Actual Time 7:47 AM PDT 5:58 PM PDT
Civil Twilight 7:16 AM PDT 6:30 PM PDT
Nautical Twilight 6:40 AM PDT 7:06 PM PDT
Astronomical Twilight 6:04 AM PDT 7:41 PM PDT
Moon 5:19 PM PDT (10/28) 6:44 AM PDT (10/28)
Length of Visible Light 11h 14m
Length of Day
10h 10m
Waxing Gibbous, 99% of the Moon is Illuminated
Oct 28
Waxing Gibbous
Oct 29
Full
Nov 6
Last Quarter
Nov 13
New
Nov 20
First Quarter

Hourly Weather History & Observations

Time (PDT) Temp. Dew Point Humidity Pressure Visibility Wind Dir Wind Speed Gust Speed Precip Events Conditions
12:03 AM 57.2 °F 57.2 °F 100% 29.86 in 10.0 mi South 13.8 mph - N/A   Overcast
12:11 AM 59.0 °F 57.2 °F 94% 29.86 in 10.0 mi South 12.7 mph - N/A Rain Light Rain
12:21 AM 59.0 °F 57.2 °F 94% 29.86 in 10.0 mi South 12.7 mph - N/A   Overcast
12:26 AM 59.0 °F 57.2 °F 94% 29.87 in 10.0 mi South 12.7 mph - N/A Rain Light Rain
12:29 AM 59.0 °F 57.2 °F 94% 29.87 in 10.0 mi SSW 12.7 mph - N/A   Overcast
12:34 AM 59.0 °F 57.2 °F 94% 29.87 in 10.0 mi South 11.5 mph - N/A   Overcast
12:44 AM 59.0 °F 57.2 °F 94% 29.87 in 10.0 mi South 12.7 mph - N/A   Overcast
12:54 AM 59.0 °F 57.2 °F 94% 29.88 in 10.0 mi South 15.0 mph - N/A   Overcast
12:58 AM 58.3 °F 57.9 °F 99% 29.89 in 10.0 mi SSW 13.8 mph - 0.00 in   Overcast
1:18 AM 59.0 °F 57.2 °F 94% 29.89 in 10.0 mi SSW 12.7 mph - N/A   Overcast
1:33 AM 57.2 °F 57.2 °F 100% 29.89 in 10.0 mi SSW 11.5 mph - N/A   Mostly Cloudy
1:43 AM 57.2 °F 57.2 °F 100% 29.89 in 10.0 mi South 12.7 mph - N/A   Mostly Cloudy
1:58 AM 57.9 °F 57.6 °F 99% 29.91 in 10.0 mi SSW 11.5 mph - N/A   Mostly Cloudy
2:03 AM 57.2 °F 57.2 °F 100% 29.90 in 10.0 mi SSW 11.5 mph - N/A   Mostly Cloudy
2:08 AM 57.2 °F 57.2 °F 100% 29.90 in 10.0 mi SSW 12.7 mph - N/A   Overcast
2:13 AM 57.2 °F 57.2 °F 100% 29.90 in 10.0 mi SSW 11.5 mph - N/A   Mostly Cloudy
2:23 AM 57.2 °F 57.2 °F 100% 29.90 in 10.0 mi SSW 11.5 mph - N/A   Mostly Cloudy
2:28 AM 57.2 °F 57.2 °F 100% 29.90 in 10.0 mi SSW 11.5 mph - N/A   Mostly Cloudy
2:33 AM 57.2 °F 57.2 °F 100% 29.90 in 10.0 mi SSW 11.5 mph - N/A   Mostly Cloudy
2:58 AM 57.0 °F 56.3 °F 97% 29.94 in 10.0 mi SW 10.4 mph - N/A   Mostly Cloudy
3:08 AM 57.2 °F 57.2 °F 100% 29.92 in 10.0 mi SW 9.2 mph - N/A   Mostly Cloudy
3:26 AM 57.2 °F 57.2 °F 100% 29.92 in 9.0 mi SW 8.1 mph - N/A Rain Light Rain
3:31 AM 57.2 °F 57.2 °F 100% 29.92 in 9.0 mi SW 8.1 mph - N/A   Light Drizzle
3:41 AM 57.2 °F 57.2 °F 100% 29.93 in 9.0 mi SW 10.4 mph - N/A Rain Light Rain
3:42 AM 57.2 °F 57.2 °F 100% 29.93 in 10.0 mi SW 8.1 mph - N/A   Overcast
3:43 AM 57.2 °F 57.2 °F 100% 29.93 in 9.0 mi SW 8.1 mph - N/A   Light Drizzle
3:48 AM 57.2 °F 57.2 °F 100% 29.93 in 8.0 mi SW 9.2 mph - N/A Rain Light Rain
3:53 AM 57.2 °F 55.4 °F 94% 29.93 in 9.0 mi SW 9.2 mph - N/A Rain Light Rain
3:57 AM 57.2 °F 55.4 °F 94% 29.93 in 10.0 mi SW 9.2 mph - N/A   Overcast
3:58 AM 57.2 °F 55.4 °F 94% 29.94 in 10.0 mi SW 9.2 mph - 0.00 in   Overcast
4:18 AM 55.4 °F 55.4 °F 100% 29.93 in 10.0 mi SW 8.1 mph - N/A   Overcast
4:48 AM 55.4 °F 55.4 °F 100% 29.94 in 10.0 mi SW 5.8 mph - N/A   Overcast
4:58 AM 55.4 °F 55.0 °F 99% 29.96 in 10.0 mi WSW 4.6 mph - 0.00 in   Overcast
5:13 AM 55.4 °F 53.6 °F 94% 29.95 in 10.0 mi WSW 5.8 mph - N/A   Overcast
5:23 AM 55.4 °F 53.6 °F 94% 29.95 in 10.0 mi WSW 5.8 mph - N/A   Overcast
5:58 AM 54.7 °F 53.6 °F 96% 29.96 in 10.0 mi SSW 5.8 mph - N/A   Overcast
6:12 AM 55.4 °F 53.6 °F 94% 29.95 in 10.0 mi South 5.8 mph - N/A   Overcast
6:17 AM 55.4 °F 53.6 °F 94% 29.95 in 10.0 mi South 5.8 mph - N/A   Overcast
6:58 AM 53.8 °F 53.6 °F 99% 29.96 in 10.0 mi SSW 4.6 mph - N/A   Overcast
7:03 AM 53.6 °F 53.6 °F 100% 29.94 in 10.0 mi SSW 4.6 mph - N/A   Overcast
7:23 AM 53.6 °F 53.6 °F 100% 29.94 in 10.0 mi SSW 4.6 mph - N/A   Overcast
7:58 AM 53.6 °F 53.2 °F 99% 29.96 in 10.0 mi SSW 5.8 mph - N/A   Overcast
8:58 AM 53.4 °F 53.2 °F 99% 29.96 in 10.0 mi SSW 8.1 mph - N/A   Mostly Cloudy
9:08 AM 53.6 °F 53.6 °F 100% 29.95 in 10.0 mi SSW 8.1 mph - N/A   Scattered Clouds
9:28 AM 53.6 °F 53.6 °F 100% 29.95 in 10.0 mi SSW 8.1 mph - N/A   Mostly Cloudy
9:58 AM 54.7 °F 53.2 °F 95% 29.96 in 10.0 mi SW 11.5 mph - N/A   Mostly Cloudy
10:53 AM 55.4 °F 51.8 °F 88% 29.95 in 10.0 mi SW 9.2 mph - N/A   Mostly Cloudy
10:58 AM 56.1 °F 52.5 °F 88% 29.96 in 10.0 mi SW 6.9 mph - N/A   Mostly Cloudy
11:48 AM 57.2 °F 53.6 °F 88% 29.95 in 10.0 mi WSW 5.8 mph - N/A   Overcast
11:58 AM 56.8 °F 54.0 °F 90% 29.95 in 10.0 mi SW 6.9 mph - N/A   Overcast
12:33 PM 57.2 °F 53.6 °F 88% 29.94 in 10.0 mi SW 5.8 mph - N/A   Overcast
12:58 PM 57.7 °F 54.3 °F 88% 29.95 in 10.0 mi West 5.8 mph - N/A   Overcast
1:13 PM 57.2 °F 53.6 °F 88% 29.94 in 10.0 mi WSW 4.6 mph - N/A   Overcast
1:18 PM 57.2 °F 53.6 °F 88% 29.94 in 10.0 mi WSW 5.8 mph - N/A   Overcast
1:23 PM 57.2 °F 55.4 °F 94% 29.93 in 10.0 mi WSW 4.6 mph - N/A   Overcast
1:43 PM 59.0 °F 55.4 °F 88% 29.93 in 10.0 mi SW 5.8 mph - N/A   Mostly Cloudy
1:58 PM 58.5 °F 54.7 °F 87% 29.93 in 10.0 mi SW 5.8 mph - 0.01 in   Mostly Cloudy
2:58 PM 58.6 °F 54.9 °F 87% 29.92 in 10.0 mi West 3.5 mph - N/A   Overcast
3:33 PM 59.0 °F 55.4 °F 88% 29.91 in 10.0 mi West 4.6 mph - N/A   Overcast
3:48 PM 59.0 °F 55.4 °F 88% 29.91 in 10.0 mi West 3.5 mph - N/A   Overcast
3:53 PM 59.0 °F 55.4 °F 88% 29.91 in 10.0 mi NW 3.5 mph - N/A Rain Light Rain
3:58 PM 58.3 °F 54.9 °F 88% 29.92 in 10.0 mi West 3.5 mph - 0.00 in Rain Light Rain
4:08 PM 57.2 °F 55.4 °F 94% 29.91 in 10.0 mi NW 3.5 mph - N/A Rain Light Rain
4:09 PM 57.2 °F 55.4 °F 94% 29.91 in 10.0 mi NW 3.5 mph - N/A   Overcast
4:13 PM 57.2 °F 55.4 °F 94% 29.91 in 10.0 mi NNW 3.5 mph - N/A   Light Drizzle
4:18 PM 57.2 °F 55.4 °F 94% 29.91 in 10.0 mi NW 3.5 mph - N/A Rain Light Rain
4:28 PM 57.2 °F 55.4 °F 94% 29.91 in 10.0 mi WNW 4.6 mph - N/A Rain Light Rain
4:33 PM 57.2 °F 55.4 °F 94% 29.90 in 10.0 mi NW 2.3 mph - N/A Rain Light Rain
4:38 PM 57.2 °F 55.4 °F 94% 29.90 in 10.0 mi Calm Calm - N/A Rain Light Rain
4:48 PM 57.2 °F 55.4 °F 94% 29.90 in 10.0 mi SW 1.2 mph - N/A Rain Light Rain
4:58 PM 56.7 °F 55.0 °F 94% 29.91 in 10.0 mi SE 2.3 mph - 0.00 in Rain Light Rain
5:22 PM 57.2 °F 53.6 °F 88% 29.88 in 10.0 mi SSE 3.5 mph - N/A   Overcast
5:38 PM 55.4 °F 51.8 °F 88% 29.88 in 10.0 mi SE 2.3 mph - N/A Rain Light Rain
5:58 PM 55.4 °F 51.1 °F 85% 29.89 in 10.0 mi South 2.3 mph - 0.00 in Rain Light Rain
6:58 PM 53.4 °F 52.3 °F 96% 29.88 in 9.0 mi East 2.3 mph - 0.04 in Rain Light Rain
7:46 PM 53.6 °F 51.8 °F 94% 29.84 in 10.0 mi ENE 3.5 mph - N/A   Overcast
7:58 PM 52.5 °F 51.8 °F 97% 29.84 in 10.0 mi East 4.6 mph - 0.02 in   Overcast
7:59 PM 51.8 °F 51.8 °F 100% 29.83 in 10.0 mi East 4.6 mph - N/A   Light Drizzle
8:17 PM 51.8 °F 51.8 °F 100% 29.84 in 10.0 mi East 1.2 mph - N/A   Overcast
8:20 PM 51.8 °F 51.8 °F 100% 29.83 in 10.0 mi ESE 2.3 mph - N/A Rain Light Rain
8:25 PM 51.8 °F 51.8 °F 100% 29.83 in 7.0 mi East 2.3 mph - N/A Rain Light Rain
8:32 PM 51.8 °F 51.8 °F 100% 29.82 in 5.0 mi East 2.3 mph - N/A Rain Light Rain
8:37 PM 51.8 °F 51.8 °F 100% 29.82 in 6.0 mi East 2.3 mph - N/A Rain Light Rain
8:47 PM 51.8 °F 51.8 °F 100% 29.83 in 4.0 mi NW 2.3 mph - N/A Rain Rain
8:49 PM 51.8 °F 51.8 °F 100% 29.83 in 4.0 mi North 1.2 mph - N/A Rain Light Rain
8:58 PM 51.8 °F 51.8 °F 100% 29.84 in 4.0 mi North 2.3 mph - 0.05 in Rain Light Rain
9:03 PM 51.8 °F 51.8 °F 100% 29.82 in 5.0 mi NNE 2.3 mph - N/A Rain Light Rain
9:08 PM 51.8 °F 51.8 °F 100% 29.82 in 5.0 mi NE 2.3 mph - N/A Rain Light Rain
9:23 PM 51.8 °F 51.8 °F 100% 29.82 in 5.0 mi Calm Calm - N/A Rain Light Rain
9:32 PM 51.8 °F 51.8 °F 100% 29.81 in 7.0 mi Calm Calm - N/A   Overcast
9:58 PM 51.6 °F 51.4 °F 99% 29.81 in 9.0 mi ESE 2.3 mph - 0.01 in   Overcast
10:00 PM 51.8 °F 51.8 °F 100% 29.80 in 9.0 mi ESE 2.3 mph - N/A Rain Light Rain
10:40 PM 51.8 °F 51.8 °F 100% 29.80 in 4.0 mi SE 2.3 mph - N/A Rain Light Rain
10:58 PM 51.1 °F 50.9 °F 99% 29.81 in 7.0 mi SSW 1.2 mph - 0.04 in Rain Light Rain
11:03 PM 51.8 °F 50.0 °F 94% 29.80 in 8.0 mi SW 1.2 mph - N/A Rain Light Rain
11:06 PM 51.8 °F 51.8 °F 100% 29.80 in 6.0 mi Calm Calm - N/A Rain Light Rain
11:31 PM 51.8 °F 50.0 °F 94% 29.78 in 4.0 mi ESE 3.5 mph - N/A Rain Light Rain
11:46 PM 51.8 °F 50.0 °F 94% 29.78 in 5.0 mi SE 4.6 mph - N/A Rain Light Rain
11:51 PM 51.8 °F 50.0 °F 94% 29.77 in 6.0 mi SSE 3.5 mph - N/A Rain Light Rain
11:58 PM 51.1 °F 50.7 °F 99% 29.78 in 6.0 mi SSE 2.3 mph - 0.06 in Rain Light Rain